FW8523 Weather Reports


time (UTC)temp
F
wind
direction
speed
knots
gust
knots
rain 1hr
in
rain 24hr
in
rain mn
in
humidity
%
barometer
mb
20260504081536 68 61 0.0 4.3 0.00 0.01 0.00 79 1016.2
20260504050015 70 70 0.0 2.6 0.00 0.02 0.00 77 1017.5
20260504044513 70 92 0.0 3.5 0.00 0.02 0.00 76 1017.3
20260504043010 71 81 0.9 5.2 0.00 0.02 0.00 76 1017.4
20260504041505 71 115 0.0 4.3 0.00 0.02 0.00 75 1017.5
20260504040004 71 92 0.9 2.6 0.00 0.02 0.00 75 1017.6
20260504034600 71 64 0.0 1.7 0.00 0.02 0.02 74 1017.9
20260504033116 71 61 0.0 2.6 0.00 0.02 0.02 72 1017.8
20260504031604 71 59 0.9 3.5 0.00 0.02 0.02 70 1017.8
20260504030058 72 50 0.9 3.5 0.00 0.02 0.02 70 1017.8
20260504024602 72 67 0.9 5.2 0.00 0.02 0.02 69 1017.7
20260504023058 72 61 1.7 5.2 0.00 0.02 0.02 70 1017.5
20260504021557 72 65 1.7 5.2 0.00 0.02 0.02 70 1017.2
20260504020056 72 54 0.9 5.2 0.00 0.02 0.02 70 1017.3
20260504014558 73 49 1.7 5.2 0.00 0.02 0.02 70 1017.0
20260504013106 72 31 0.9 3.5 0.00 0.02 0.02 70 1016.8
20260504011555 73 32 0.9 5.2 0.00 0.02 0.02 71 1016.6
20260504010056 73 57 1.7 7.0 0.00 0.02 0.02 70 1016.4
20260504004608 73 5 1.7 5.2 0.00 0.02 0.02 69 1016.3
20260504003100 73 33 1.7 5.2 0.00 0.02 0.02 69 1016.1
20260504001557 74 11 2.6 7.0 0.00 0.02 0.02 69 1016.0
20260504000054 74 336 1.7 7.0 0.00 0.02 0.02 70 1015.5
20260503234552 74 351 4.3 9.6 0.00 0.02 0.02 69 1015.8
20260503233051 75 293 2.6 8.7 0.00 0.02 0.02 68 1015.8
20260503231555 75 344 3.5 8.7 0.00 0.02 0.02 69 1015.9
20260503230054 75 360 3.5 8.7 0.00 0.02 0.02 68 1015.8
20260503224550 75 315 4.3 9.6 0.00 0.03 0.02 67 1015.7
20260503223050 75 329 4.3 9.6 0.00 0.03 0.02 68 1015.8
20260503221553 76 331 3.5 8.7 0.00 0.03 0.02 66 1015.8
20260503220049 76 297 4.3 8.7 0.00 0.03 0.02 66 1015.6
20260503214548 77 316 3.5 10.4 0.00 0.06 0.02 65 1015.9
20260503213049 77 342 3.5 10.4 0.00 0.06 0.02 65 1015.7
20260503211547 77 51 4.3 10.4 0.00 0.06 0.02 65 1015.8
20260503210047 78 5 3.5 9.6 0.00 0.06 0.02 64 1015.6
20260503204547 77 288 2.6 9.6 0.00 0.09 0.02 64 1015.9
20260503203046 77 344 3.5 10.4 0.00 0.09 0.02 64 1016.1
20260503201544 77 346 2.6 8.7 0.00 0.09 0.02 63 1016.1
20260503200044 78 67 3.5 7.8 0.00 0.09 0.02 59 1016.5
20260503194548 78 115 2.6 11.3 0.00 0.32 0.02 60 1016.6
20260503193044 78 90 2.6 9.6 0.00 0.32 0.02 62 1016.8
20260503191541 78 145 1.7 7.8 0.00 0.32 0.02 61 1017.0
20260503190050 77 83 2.6 9.6 0.00 0.32 0.02 62 1017.3
20260503184547 76 72 1.7 9.6 0.00 0.50 0.02 62 1017.7
20260503183037 76 53 3.5 8.7 0.00 0.50 0.02 62 1017.8
20260503181538 76 77 3.5 7.8 0.00 0.50 0.02 63 1017.8
20260503180036 76 43 6.1 10.4 0.00 0.50 0.02 62 1018.2
20260503174549 76 58 3.5 8.7 0.00 0.50 0.02 63 1018.1
20260503173034 76 38 5.2 11.3 0.00 0.50 0.02 63 1018.3
20260503171529 76 59 1.7 8.7 0.00 0.50 0.02 66 1018.5